Bretagne — FNBR — position and weather

sailwx.info

Track history (hours):
 
Tides and Currents Weather Stations Pressure Air Temp Water Temp Dewpoint Dewpoint Depression Visibility Wind Speed Wind Dir Waves Ship Positions

Bretagne

Operator: Brittany Ferries

Last reported at 2014-Jul-24 01:16 UTC. Time now 2014-Jul-24 02:19 UTC.
Position N 49°32' W 002°11'.

Length 151 m; beam 27 m.

Type: Passenger vessel. MMSI: 227286000.

Date/timePositionNaut miles runAvg speedWind from/ knotsBaromVisibWave heightAir tempDewpointWater temp
2014-Jul-24 01:16N 49°32' W 002°11'3315.1
2014-Jul-23 23:06N 50°01' W 001°46'3116.5
2014-Jul-23 21:14N 50°27' W 001°20'1115.8
2014-Jul-23 20:34N 50°36' W 001°10'1211.8
2014-Jul-23 19:33N 50°47' W 001°06'2 1.6
2014-Jul-23 18:33N 50°49' W 001°06'0 0.0
2014-Jul-23 17:33N 50°49' W 001°06'3 2.9
2014-Jul-23 16:34N 50°46' W 001°05'1716.6
2014-Jul-23 15:33N 50°30' W 001°15'76 5.9
2014-Jul-23 02:33N 49°24' W 002°15'2913.7
2014-Jul-23 00:25N 49°51' W 001°55'1916.2
2014-Jul-22 23:15N 50°07' W 001°39'1217.0
2014-Jul-22 22:33N 50°16' W 001°27'1716.7
2014-Jul-22 21:34N 50°30' W 001°15'1515.1
2014-Jul-22 20:34N 50°44' W 001°03'5 5.4
2014-Jul-22 19:33N 50°49' W 001°06'0 0.0
2014-Jul-22 18:33N 50°49' W 001°06'0 0.0
2014-Jul-22 17:33N 50°49' W 001°06'5 4.9
2014-Jul-22 16:34N 50°44' W 001°04'1615.4
2014-Jul-22 15:33N 50°29' W 001°13'3 0.2
2014-Jul-21 21:05N 50°28' W 001°17'916.4
2014-Jul-21 20:33N 50°35' W 001°10'416.3
2014-Jul-21 20:18N 50°38' W 001°06'912.7
2014-Jul-21 19:34N 50°48' W 001°07'1 1.1
2014-Jul-21 18:32N 50°49' W 001°06'0 0.0
2014-Jul-21 17:31N 50°49' W 001°06'2 1.6
2014-Jul-21 16:34N 50°47' W 001°06'19 1.0
2014-Jul-20 21:32N 50°30' W 001°15'1515.7
2014-Jul-20 20:34N 50°43' W 001°03'6 5.9
2014-Jul-20 19:32N 50°49' W 001°06'0 0.0
2014-Jul-20 18:32N 50°49' W 001°06'0 0.0
2014-Jul-20 17:32N 50°49' W 001°06'2 2.3
2014-Jul-20 16:34N 50°46' W 001°06'66 4.1
2014-Jul-20 00:29N 49°49' W 001°56'1516.0
2014-Jul-19 23:33N 50°02' W 001°45'1818.0
2014-Jul-19 22:33N 50°17' W 001°29'1817.9
2014-Jul-19 21:33N 50°32' W 001°15'1413.7
2014-Jul-19 20:34N 50°44' W 001°04'5 4.7
2014-Jul-19 19:32N 50°49' W 001°06'0 0.0
2014-Jul-19 18:32N 50°49' W 001°06'0 0.0
2014-Jul-19 17:32N 50°49' W 001°06'9 8.8
2014-Jul-19 16:33N 50°40' W 001°04'61 3.8
2014-Jul-19 00:27N 49°50' W 001°57'3913.2
2014-Jul-18 21:28N 50°23' W 001°23'1415.5
2014-Jul-18 20:33N 50°34' W 001°10'1313.3
2014-Jul-18 19:34N 50°47' W 001°06'2 1.6
2014-Jul-18 18:33N 50°49' W 001°06'0 0.0
2014-Jul-18 17:33N 50°49' W 001°06'6 6.5
2014-Jul-18 16:34N 50°43' W 001°03'1717.1
2014-Jul-18 15:33N 50°28' W 001°17'11212.5
2014-Jul-18 06:33N 48°39' W 002°04'1816.1
2014-Jul-18 05:26N 48°54' W 002°20'8513.9
2014-Jul-17 23:22N 50°11' W 001°28'910.9
2014-Jul-17 22:34N 50°19' W 001°21'1010.1
2014-Jul-17 21:33N 50°28' W 001°13'1111.1
2014-Jul-17 20:33N 50°37' W 001°03'1111.5
2014-Jul-17 19:34N 50°48' W 001°07'1 1.1
2014-Jul-17 18:33N 50°49' W 001°06'0 0.0
2014-Jul-17 17:33N 50°49' W 001°06'4 4.2
2014-Jul-17 16:33N 50°45' W 001°05'1514.7
2014-Jul-17 15:33N 50°31' W 001°14'1715.6
2014-Jul-17 14:30N 50°16' W 001°26'10112.2
2014-Jul-17 06:16N 48°38' W 002°02'6613.8
2014-Jul-17 01:31N 49°44' W 002°02'1513.3
2014-Jul-17 00:23N 49°55' W 001°46'1213.2
2014-Jul-16 23:30N 50°05' W 001°38'1212.5
2014-Jul-16 22:34N 50°15' W 001°28'1313.1
2014-Jul-16 21:33N 50°25' W 001°16'1313.0
2014-Jul-16 20:34N 50°36' W 001°04'1010.4
2014-Jul-16 19:34N 50°46' W 001°06'2 2.3
2014-Jul-16 18:33N 50°49' W 001°06'0 0.0
2014-Jul-16 17:33N 50°49' W 001°06'0 0.0
2014-Jul-16 16:33N 50°49' W 001°06'0 0.0
2014-Jul-16 15:33N 50°49' W 001°06'0 0.0
2014-Jul-16 14:33N 50°49' W 001°06'0 0.2
2014-Jul-16 13:33N 50°49' W 001°05'0 0.0
2014-Jul-16 12:33N 50°49' W 001°05'0 0.0
2014-Jul-16 11:33N 50°49' W 001°05'0 0.0
2014-Jul-16 10:33N 50°49' W 001°05'0 0.0
2014-Jul-16 09:33N 50°49' W 001°05'0 0.0
2014-Jul-16 08:33N 50°49' W 001°05'0 0.1
2014-Jul-16 07:31N 50°49' W 001°06'0 0.0
2014-Jul-16 06:33N 50°49' W 001°06'9 8.9
2014-Jul-16 05:34N 50°41' W 000°58'1515.0
2014-Jul-16 04:33N 50°30' W 001°14'1414.1
2014-Jul-16 03:33N 50°20' W 001°29'1514.9
2014-Jul-16 02:32N 50°07' W 001°43'1514.5
2014-Jul-16 01:32N 49°54' W 001°53'43 1.9
2014-Jul-15 03:28N 49°15' W 002°21'6014.4
2014-Jul-14 23:20N 50°09' W 001°39'1013.1
2014-Jul-14 22:33N 50°17' W 001°30'1312.7
2014-Jul-14 21:33N 50°27' W 001°18'1211.5
2014-Jul-14 20:33N 50°37' W 001°08'1110.6
2014-Jul-14 19:34N 50°47' W 001°06'2 1.6
2014-Jul-14 18:33N 50°49' W 001°06'0 0.0
2014-Jul-14 17:33N 50°49' W 001°06'4 3.7
2014-Jul-14 16:33N 50°45' W 001°05'1414.0
2014-Jul-14 15:33N 50°32' W 001°12'  
Track history (hours):
 
Tides and Currents Weather Stations Pressure Air Temp Water Temp Dewpoint Dewpoint Depression Visibility Wind Speed Wind Dir Waves Ship Positions

Bretagne

Operator: Brittany Ferries

Last reported at 2014-Jul-24 01:16 UTC. Time now 2014-Jul-24 02:19 UTC.
Position N 49°32' W 002°11'.

Length 151 m; beam 27 m.

Type: Passenger vessel. MMSI: 227286000.

Date/timePositionNaut miles runAvg speedWind from/ knotsBaromVisibWave heightAir tempDewpointWater temp
2014-Jul-24 01:16N 49°32' W 002°11'3315.1
2014-Jul-23 23:06N 50°01' W 001°46'3116.5
2014-Jul-23 21:14N 50°27' W 001°20'1115.8
2014-Jul-23 20:34N 50°36' W 001°10'1211.8
2014-Jul-23 19:33N 50°47' W 001°06'2 1.6
2014-Jul-23 18:33N 50°49' W 001°06'0 0.0
2014-Jul-23 17:33N 50°49' W 001°06'3 2.9
2014-Jul-23 16:34N 50°46' W 001°05'1716.6
2014-Jul-23 15:33N 50°30' W 001°15'76 5.9
2014-Jul-23 02:33N 49°24' W 002°15'2913.7
2014-Jul-23 00:25N 49°51' W 001°55'1916.2
2014-Jul-22 23:15N 50°07' W 001°39'1217.0
2014-Jul-22 22:33N 50°16' W 001°27'1716.7
2014-Jul-22 21:34N 50°30' W 001°15'1515.1
2014-Jul-22 20:34N 50°44' W 001°03'5 5.4
2014-Jul-22 19:33N 50°49' W 001°06'0 0.0
2014-Jul-22 18:33N 50°49' W 001°06'0 0.0
2014-Jul-22 17:33N 50°49' W 001°06'5 4.9
2014-Jul-22 16:34N 50°44' W 001°04'1615.4
2014-Jul-22 15:33N 50°29' W 001°13'3 0.2
2014-Jul-21 21:05N 50°28' W 001°17'916.4
2014-Jul-21 20:33N 50°35' W 001°10'416.3
2014-Jul-21 20:18N 50°38' W 001°06'912.7
2014-Jul-21 19:34N 50°48' W 001°07'1 1.1
2014-Jul-21 18:32N 50°49' W 001°06'0 0.0
2014-Jul-21 17:31N 50°49' W 001°06'2 1.6
2014-Jul-21 16:34N 50°47' W 001°06'19 1.0
2014-Jul-20 21:32N 50°30' W 001°15'1515.7
2014-Jul-20 20:34N 50°43' W 001°03'6 5.9
2014-Jul-20 19:32N 50°49' W 001°06'0 0.0
2014-Jul-20 18:32N 50°49' W 001°06'0 0.0
2014-Jul-20 17:32N 50°49' W 001°06'2 2.3
2014-Jul-20 16:34N 50°46' W 001°06'66 4.1
2014-Jul-20 00:29N 49°49' W 001°56'1516.0
2014-Jul-19 23:33N 50°02' W 001°45'1818.0
2014-Jul-19 22:33N 50°17' W 001°29'1817.9
2014-Jul-19 21:33N 50°32' W 001°15'1413.7
2014-Jul-19 20:34N 50°44' W 001°04'5 4.7
2014-Jul-19 19:32N 50°49' W 001°06'0 0.0
2014-Jul-19 18:32N 50°49' W 001°06'0 0.0
2014-Jul-19 17:32N 50°49' W 001°06'9 8.8
2014-Jul-19 16:33N 50°40' W 001°04'61 3.8
2014-Jul-19 00:27N 49°50' W 001°57'3913.2
2014-Jul-18 21:28N 50°23' W 001°23'1415.5
2014-Jul-18 20:33N 50°34' W 001°10'1313.3
2014-Jul-18 19:34N 50°47' W 001°06'2 1.6
2014-Jul-18 18:33N 50°49' W 001°06'0 0.0
2014-Jul-18 17:33N 50°49' W 001°06'6 6.5
2014-Jul-18 16:34N 50°43' W 001°03'1717.1
2014-Jul-18 15:33N 50°28' W 001°17'11212.5
2014-Jul-18 06:33N 48°39' W 002°04'1816.1
2014-Jul-18 05:26N 48°54' W 002°20'8513.9
2014-Jul-17 23:22N 50°11' W 001°28'910.9
2014-Jul-17 22:34N 50°19' W 001°21'1010.1
2014-Jul-17 21:33N 50°28' W 001°13'1111.1
2014-Jul-17 20:33N 50°37' W 001°03'1111.5
2014-Jul-17 19:34N 50°48' W 001°07'1 1.1
2014-Jul-17 18:33N 50°49' W 001°06'0 0.0
2014-Jul-17 17:33N 50°49' W 001°06'4 4.2
2014-Jul-17 16:33N 50°45' W 001°05'1514.7
2014-Jul-17 15:33N 50°31' W 001°14'1715.6
2014-Jul-17 14:30N 50°16' W 001°26'10112.2
2014-Jul-17 06:16N 48°38' W 002°02'6613.8
2014-Jul-17 01:31N 49°44' W 002°02'1513.3
2014-Jul-17 00:23N 49°55' W 001°46'1213.2
2014-Jul-16 23:30N 50°05' W 001°38'1212.5
2014-Jul-16 22:34N 50°15' W 001°28'1313.1
2014-Jul-16 21:33N 50°25' W 001°16'1313.0
2014-Jul-16 20:34N 50°36' W 001°04'1010.4
2014-Jul-16 19:34N 50°46' W 001°06'2 2.3
2014-Jul-16 18:33N 50°49' W 001°06'0 0.0
2014-Jul-16 17:33N 50°49' W 001°06'0 0.0
2014-Jul-16 16:33N 50°49' W 001°06'0 0.0
2014-Jul-16 15:33N 50°49' W 001°06'0 0.0
2014-Jul-16 14:33N 50°49' W 001°06'0 0.2
2014-Jul-16 13:33N 50°49' W 001°05'0 0.0
2014-Jul-16 12:33N 50°49' W 001°05'0 0.0
2014-Jul-16 11:33N 50°49' W 001°05'0 0.0
2014-Jul-16 10:33N 50°49' W 001°05'0 0.0
2014-Jul-16 09:33N 50°49' W 001°05'0 0.0
2014-Jul-16 08:33N 50°49' W 001°05'0 0.1
2014-Jul-16 07:31N 50°49' W 001°06'0 0.0
2014-Jul-16 06:33N 50°49' W 001°06'9 8.9
2014-Jul-16 05:34N 50°41' W 000°58'1515.0
2014-Jul-16 04:33N 50°30' W 001°14'1414.1
2014-Jul-16 03:33N 50°20' W 001°29'1514.9
2014-Jul-16 02:32N 50°07' W 001°43'1514.5
2014-Jul-16 01:32N 49°54' W 001°53'43 1.9
2014-Jul-15 03:28N 49°15' W 002°21'6014.4
2014-Jul-14 23:20N 50°09' W 001°39'1013.1
2014-Jul-14 22:33N 50°17' W 001°30'1312.7
2014-Jul-14 21:33N 50°27' W 001°18'1211.5
2014-Jul-14 20:33N 50°37' W 001°08'1110.6
2014-Jul-14 19:34N 50°47' W 001°06'2 1.6
2014-Jul-14 18:33N 50°49' W 001°06'0 0.0
2014-Jul-14 17:33N 50°49' W 001°06'4 3.7
2014-Jul-14 16:33N 50°45' W 001°05'1414.0
2014-Jul-14 15:33N 50°32' W 001°12'  

Dump ship's entire track history